Weather History for Asheboro, NC

Change the Weather History Date:

Thursday, November 1, 2012

  Actual Average Record
Temperature  
Mean Temperature 45 °F -  
Max Temperature 55 °F 69 °F 85 °F (1950)
Min Temperature 35 °F 47 °F 31 °F (1955)
Degree Days  
Heating Degree Days 20    
Moisture  
Dew Point 34 °F    
Average Humidity 66    
Maximum Humidity 93    
Minimum Humidity 41    
Precipitation  
Precipitation 0.00 in - - ()
Sea Level Pressure  
Sea Level Pressure 29.83 in    
Wind  
Wind Speed 2 mph (West)    
Max Wind Speed 12 mph    
Max Gust Speed 17 mph    
Visibility 10 miles    
Events      
Averages and records for this station are not official NWS values.
T = Trace of Precipitation, MM = Missing Value Source: NWS Daily Summary

Daily Weather History Graph

Daily Weather History Graph

Search for Another Location

Airport:

Trip Planner

Search our weather history database for the weather conditions in past years. The results will help you decide how hot, cold, wet, or windy it might be!

Date:

Astronomy

Nov. 01, 2012 Rise Set
Actual Time 7:42 AM EDT 6:23 PM EDT
Civil Twilight 7:15 AM EDT 6:50 PM EDT
Nautical Twilight 6:45 AM EDT 7:20 PM EDT
Astronomical Twilight 6:15 AM EDT 7:50 PM EDT
Moon 8:23 PM EDT (11/1) 10:08 AM EDT (11/1)
Length of Visible Light 11h 34m
Length of Day
10h 41m
Waning Gibbous, 93% of the Moon is Illuminated
Nov 1
Waning Gibbous
Nov 6
Last Quarter
Nov 13
New
Nov 20
First Quarter
Nov 28
Full

Hourly Weather History & Observations

Time (EDT) Temp. Windchill Dew Point Humidity Pressure Visibility Wind Dir Wind Speed Gust Speed Precip Events Conditions
12:15 AM 42.8 °F - 35.6 °F 76% 29.81 in 10.0 mi Calm Calm - N/A   Mostly Cloudy
12:35 AM 42.8 °F - 35.6 °F 76% 29.81 in 10.0 mi Calm Calm - N/A   Overcast
12:55 AM 42.8 °F - 35.6 °F 76% 29.81 in 10.0 mi Calm Calm - N/A   Overcast
1:15 AM 42.8 °F - 35.6 °F 76% 29.81 in 10.0 mi Calm Calm - N/A   Overcast
1:35 AM 44.6 °F - 35.6 °F 71% 29.81 in 10.0 mi Calm Calm - N/A   Overcast
1:55 AM 44.6 °F - 35.6 °F 71% 29.81 in 10.0 mi Calm Calm - N/A   Overcast
2:15 AM 42.8 °F - 35.6 °F 76% 29.81 in 10.0 mi Calm Calm - N/A   Overcast
2:35 AM 42.8 °F 40.1 °F 35.6 °F 76% 29.81 in 10.0 mi SW 4.6 mph - N/A   Overcast
2:55 AM 42.8 °F 40.1 °F 35.6 °F 76% 29.81 in 10.0 mi SW 4.6 mph - N/A   Overcast
3:15 AM 42.8 °F 41.1 °F 35.6 °F 76% 29.80 in 10.0 mi SW 3.5 mph - N/A   Overcast
3:35 AM 42.8 °F - 35.6 °F 76% 29.80 in 10.0 mi Calm Calm - N/A   Overcast
3:55 AM 42.8 °F - 35.6 °F 76% 29.80 in 10.0 mi Calm Calm - N/A   Overcast
4:15 AM 41.0 °F - 35.6 °F 81% 29.80 in 10.0 mi Calm Calm - N/A   Mostly Cloudy
4:35 AM 41.0 °F - 35.6 °F 81% 29.79 in 10.0 mi Calm Calm - N/A   Mostly Cloudy
4:55 AM 39.2 °F - 35.6 °F 87% 29.80 in 10.0 mi Calm Calm - N/A   Mostly Cloudy
5:15 AM 37.4 °F - 35.6 °F 93% 29.80 in 10.0 mi Calm Calm - N/A   Scattered Clouds
5:35 AM 37.4 °F 34.9 °F 35.6 °F 93% 29.80 in 10.0 mi SSW 3.5 mph - N/A   Clear
5:55 AM 37.4 °F 34.9 °F 35.6 °F 93% 29.80 in 10.0 mi SSW 3.5 mph - N/A   Mostly Cloudy
6:15 AM 39.2 °F 35.9 °F 35.6 °F 87% 29.80 in 10.0 mi SSW 4.6 mph - N/A   Overcast
6:35 AM 41.0 °F 38.0 °F 35.6 °F 81% 29.81 in 10.0 mi SW 4.6 mph - N/A   Overcast
6:55 AM 41.0 °F - 35.6 °F 81% 29.81 in 10.0 mi Calm Calm - N/A   Mostly Cloudy
7:35 AM 37.4 °F - 35.6 °F 93% 29.82 in 10.0 mi Calm Calm - N/A   Clear
7:55 AM 37.4 °F - 35.6 °F 93% 29.82 in 10.0 mi Calm Calm - N/A   Clear
8:15 AM 35.6 °F - 33.8 °F 93% 29.83 in 10.0 mi Calm Calm - N/A   Clear
8:35 AM 37.4 °F - 33.8 °F 87% 29.83 in 10.0 mi Calm Calm - N/A   Clear
8:55 AM 39.2 °F - 35.6 °F 87% 29.84 in 10.0 mi Calm Calm - N/A   Clear
9:15 AM 42.8 °F 40.1 °F 35.6 °F 76% 29.84 in 10.0 mi SSW 4.6 mph - N/A   Clear
9:55 AM 44.6 °F 42.2 °F 35.6 °F 71% 29.85 in 10.0 mi WNW 4.6 mph - N/A   Clear
10:15 AM 46.4 °F 45.2 °F 33.8 °F 62% 29.85 in 10.0 mi WNW 3.5 mph - N/A   Clear
10:35 AM 50.0 °F - 33.8 °F 54% 29.85 in 10.0 mi NW 6.9 mph - N/A   Clear
10:55 AM 50.0 °F - 32.0 °F 50% 29.85 in 10.0 mi WNW 5.8 mph - N/A   Scattered Clouds
11:15 AM 50.0 °F - 32.0 °F 50% 29.86 in 10.0 mi WNW 5.8 mph - N/A   Mostly Cloudy
11:35 AM 50.0 °F - 33.8 °F 54% 29.86 in 10.0 mi West 9.2 mph - N/A   Overcast
11:55 AM 50.0 °F - 32.0 °F 50% 29.86 in 10.0 mi NNW 11.5 mph - N/A   Overcast
12:15 PM 51.8 °F - 32.0 °F 47% 29.86 in 10.0 mi West 10.4 mph - N/A   Mostly Cloudy
12:35 PM 51.8 °F - 33.8 °F 50% 29.85 in 10.0 mi WNW 8.1 mph - N/A   Overcast
12:55 PM 51.8 °F - 32.0 °F 47% 29.84 in 10.0 mi West 9.2 mph - N/A   Mostly Cloudy
1:15 PM 51.8 °F - 32.0 °F 47% 29.83 in 10.0 mi West 8.1 mph - N/A   Mostly Cloudy
1:55 PM 53.6 °F - 33.8 °F 47% 29.81 in 10.0 mi West 6.9 mph - N/A   Overcast
2:15 PM 53.6 °F - 33.8 °F 47% 29.80 in 10.0 mi NW 8.1 mph - N/A   Mostly Cloudy
2:35 PM 53.6 °F - 32.0 °F 44% 29.80 in 10.0 mi West 5.8 mph 16.1 mph N/A   Mostly Cloudy
2:55 PM 53.6 °F - 32.0 °F 44% 29.80 in 10.0 mi West 6.9 mph - N/A   Mostly Cloudy
3:15 PM 53.6 °F - 32.0 °F 44% 29.80 in 10.0 mi NW 3.5 mph - N/A   Mostly Cloudy
3:35 PM 53.6 °F - 32.0 °F 44% 29.80 in 10.0 mi West 10.4 mph 17.3 mph N/A   Mostly Cloudy
3:55 PM 53.6 °F - 33.8 °F 47% 29.81 in 10.0 mi West 8.1 mph 17.3 mph N/A   Overcast
4:15 PM 53.6 °F - 33.8 °F 47% 29.80 in 10.0 mi West 4.6 mph - N/A   Mostly Cloudy
4:35 PM 55.4 °F - 33.8 °F 44% 29.80 in 10.0 mi Calm Calm - N/A   Mostly Cloudy
4:55 PM 53.6 °F - 33.8 °F 47% 29.80 in 10.0 mi WNW 4.6 mph - N/A   Scattered Clouds
5:15 PM 55.4 °F - 33.8 °F 44% 29.81 in 10.0 mi WNW 4.6 mph - N/A   Clear
5:35 PM 55.4 °F - 32.0 °F 41% 29.81 in 10.0 mi Calm Calm - N/A   Scattered Clouds
5:55 PM 53.6 °F - 32.0 °F 44% 29.81 in 10.0 mi West 4.6 mph - N/A   Scattered Clouds
6:15 PM 53.6 °F - 32.0 °F 44% 29.82 in 10.0 mi West 6.9 mph - N/A   Clear
6:35 PM 51.8 °F - 32.0 °F 47% 29.84 in 10.0 mi WNW 3.5 mph - N/A   Clear
6:55 PM 51.8 °F - 33.8 °F 50% 29.85 in 10.0 mi Calm Calm - N/A   Clear
7:15 PM 50.0 °F - 33.8 °F 54% 29.86 in 10.0 mi WSW 3.5 mph - N/A   Clear
7:35 PM 50.0 °F - 33.8 °F 54% 29.86 in 10.0 mi West 3.5 mph - N/A   Clear
7:55 PM 50.0 °F - 33.8 °F 54% 29.87 in 10.0 mi Calm Calm - N/A   Clear
8:15 PM 44.6 °F - 35.6 °F 71% 29.86 in 10.0 mi Calm Calm - N/A   Clear
8:35 PM 42.8 °F - 35.6 °F 76% 29.86 in 10.0 mi Calm Calm - N/A   Clear
8:55 PM 41.0 °F - 33.8 °F 76% 29.87 in 10.0 mi Calm Calm - N/A   Clear
9:15 PM 41.0 °F - 33.8 °F 76% 29.87 in 10.0 mi Calm Calm - N/A   Clear
9:35 PM 39.2 °F - 33.8 °F 81% 29.88 in 10.0 mi Calm Calm - N/A   Clear
9:55 PM 37.4 °F - 33.8 °F 87% 29.88 in 10.0 mi Calm Calm - N/A   Clear
10:15 PM 39.2 °F 35.9 °F 33.8 °F 81% 29.89 in 10.0 mi SSW 4.6 mph - N/A   Clear
10:35 PM 39.2 °F 35.9 °F 33.8 °F 81% 29.89 in 10.0 mi SW 4.6 mph - N/A   Clear
10:55 PM 42.8 °F 40.1 °F 33.8 °F 70% 29.89 in 10.0 mi SW 4.6 mph - N/A   Clear
11:15 PM 42.8 °F 40.1 °F 32.0 °F 66% 29.90 in 10.0 mi SW 4.6 mph - N/A   Clear
11:35 PM 42.8 °F 41.1 °F 32.0 °F 66% 29.90 in 10.0 mi SSW 3.5 mph - N/A   Clear
11:55 PM 41.0 °F 39.0 °F 32.0 °F 70% 29.90 in 10.0 mi SSW 3.5 mph - N/A   Clear